TimeMST,TemperatureF,Dew PointF,Humidity,Sea Level PressureIn,VisibilityMPH,Wind Direction,Wind SpeedMPH,Gust SpeedMPH,PrecipitationIn,Events,Conditions,WindDirDegrees,DateUTC
12:15 AM,60.3,27.3,29,29.85,10.0,SW,12.7,-,N/A,,Mostly Cloudy,220,2012-11-09 07:15:00
12:35 AM,59.9,28.2,30,29.85,10.0,WSW,11.5,-,N/A,,Mostly Cloudy,240,2012-11-09 07:35:00
12:55 AM,59.7,28.4,30,29.85,10.0,SW,4.6,-,N/A,,Mostly Cloudy,230,2012-11-09 07:55:00
1:15 AM,59.4,29.5,32,29.85,10.0,WSW,9.2,-,N/A,,Overcast,240,2012-11-09 08:15:00
1:35 AM,59.2,31.1,35,29.85,10.0,SSW,15.0,21.9,N/A,,Overcast,210,2012-11-09 08:35:00
1:55 AM,59.0,35.8,42,29.85,10.0,SSW,13.8,20.7,N/A,,Overcast,210,2012-11-09 08:55:00
2:15 AM,58.5,35.6,42,29.87,10.0,South,11.5,-,N/A,,Overcast,190,2012-11-09 09:15:00
2:35 AM,57.9,36.7,45,29.86,10.0,SW,6.9,-,N/A,,Overcast,220,2012-11-09 09:35:00
2:55 AM,57.4,37.4,47,29.85,10.0,WSW,8.1,-,N/A,,Overcast,240,2012-11-09 09:55:00
3:15 AM,56.5,37.8,50,29.86,10.0,WSW,3.5,-,N/A,,Scattered Clouds,250,2012-11-09 10:15:00
3:35 AM,55.0,37.6,52,29.86,10.0,Calm,Calm,-,N/A,,Mostly Cloudy,0,2012-11-09 10:35:00
3:55 AM,56.3,37.4,49,29.85,10.0,Calm,Calm,-,N/A,,Overcast,0,2012-11-09 10:55:00
4:15 AM,56.3,37.9,50,29.86,10.0,Calm,Calm,-,N/A,,Overcast,0,2012-11-09 11:15:00
4:55 AM,51.8,38.5,60,29.87,10.0,ENE,10.4,19.6,N/A,,Overcast,60,2012-11-09 11:55:00
5:15 AM,51.4,38.3,61,29.87,10.0,NE,10.4,-,N/A,,Overcast,50,2012-11-09 12:15:00
5:35 AM,50.9,39.0,64,29.88,10.0,NE,10.4,-,N/A,,Overcast,40,2012-11-09 12:35:00
5:55 AM,50.0,39.2,66,29.87,10.0,NE,13.8,-,N/A,,Overcast,40,2012-11-09 12:55:00
6:35 AM,51.8,39.2,62,29.86,10.0,NNE,16.1,-,N/A,,Overcast,20,2012-11-09 13:35:00
6:55 AM,52.0,39.4,62,29.86,10.0,NNE,13.8,-,N/A,,Overcast,30,2012-11-09 13:55:00
7:15 AM,52.5,39.2,61,29.86,10.0,NNE,11.5,-,N/A,,Overcast,20,2012-11-09 14:15:00
7:35 AM,52.9,39.4,60,29.87,10.0,NNE,9.2,-,N/A,,Overcast,30,2012-11-09 14:35:00
7:55 AM,53.2,39.4,59,29.86,10.0,NNE,10.4,-,N/A,,Overcast,20,2012-11-09 14:55:00
8:15 AM,53.4,39.4,59,29.86,10.0,North,11.5,-,N/A,,Overcast,10,2012-11-09 15:15:00
8:35 AM,54.1,38.7,56,29.85,10.0,NE,10.4,-,N/A,,Overcast,40,2012-11-09 15:35:00
8:55 AM,52.9,43.5,71,29.86,5.0,NE,8.1,-,N/A,Rain,Rain,40,2012-11-09 15:55:00
9:15 AM,53.8,43.7,69,29.84,10.0,NNE,10.4,-,N/A,,Mostly Cloudy,20,2012-11-09 16:15:00
9:55 AM,57.6,43.2,59,29.84,10.0,NNE,11.5,-,N/A,,Overcast,30,2012-11-09 16:55:00
10:15 AM,56.1,41.9,59,29.84,10.0,NNE,6.9,-,N/A,Rain,Rain,20,2012-11-09 17:15:00
10:35 AM,54.1,46.2,75,29.82,10.0,NNE,11.5,-,N/A,,Overcast,20,2012-11-09 17:35:00
10:55 AM,54.5,43.9,67,29.81,10.0,NNE,12.7,-,N/A,,Overcast,20,2012-11-09 17:55:00
11:15 AM,54.7,44.1,67,29.79,10.0,NNE,12.7,18.4,N/A,,Overcast,30,2012-11-09 18:15:00
11:35 AM,55.0,43.0,64,29.78,10.0,NNE,13.8,20.7,N/A,,Overcast,20,2012-11-09 18:35:00
11:55 AM,54.7,43.2,65,29.77,10.0,NNE,13.8,-,N/A,Rain,Light Rain,20,2012-11-09 18:55:00
12:15 PM,57.6,43.2,59,29.75,10.0,North,9.2,-,N/A,,Overcast,10,2012-11-09 19:15:00
12:35 PM,58.1,43.0,57,29.73,10.0,NNE,8.1,-,N/A,,Overcast,20,2012-11-09 19:35:00
12:55 PM,58.1,41.7,54,29.71,10.0,NNE,6.9,-,N/A,,Overcast,20,2012-11-09 19:55:00
1:15 PM,57.6,41.5,55,29.70,10.0,NNE,5.8,-,N/A,,Overcast,30,2012-11-09 20:15:00
1:35 PM,59.0,41.2,52,29.68,10.0,NNE,9.2,-,N/A,,Mostly Cloudy,20,2012-11-09 20:35:00
1:55 PM,59.9,40.1,48,29.67,10.0,NNE,4.6,-,N/A,,Overcast,30,2012-11-09 20:55:00
2:15 PM,65.3,34.3,32,29.66,10.0,South,21.9,27.6,N/A,,Overcast,180,2012-11-09 21:15:00
2:35 PM,66.2,32.9,29,29.64,10.0,South,11.5,27.6,N/A,,Mostly Cloudy,180,2012-11-09 21:35:00
2:55 PM,67.1,32.0,27,29.63,10.0,South,19.6,28.8,N/A,,Scattered Clouds,190,2012-11-09 21:55:00
3:15 PM,65.1,31.6,29,29.62,10.0,SSW,27.6,33.4,N/A,,Clear,200,2012-11-09 22:15:00
3:35 PM,63.5,32.0,31,29.61,10.0,SSW,21.9,40.3,N/A,,Clear,200,2012-11-09 22:35:00
3:55 PM,62.4,32.2,32,29.62,10.0,South,13.8,25.3,N/A,,Clear,180,2012-11-09 22:55:00
4:15 PM,60.8,33.8,36,29.63,10.0,South,13.8,23.0,N/A,,Clear,180,2012-11-09 23:15:00
4:35 PM,60.1,34.7,39,29.63,10.0,South,8.1,16.1,N/A,,Clear,170,2012-11-09 23:35:00
4:55 PM,59.4,35.2,40,29.62,10.0,SSW,13.8,23.0,N/A,,Clear,200,2012-11-09 23:55:00
5:15 PM,58.5,35.6,42,29.61,10.0,SSW,4.6,-,N/A,,Mostly Cloudy,200,2012-11-10 00:15:00
5:35 PM,58.5,35.1,42,29.62,10.0,SSW,5.8,-,N/A,,Overcast,200,2012-11-10 00:35:00
5:55 PM,58.8,34.2,40,29.63,10.0,South,10.4,20.7,N/A,,Overcast,170,2012-11-10 00:55:00
6:15 PM,58.5,34.5,41,29.63,10.0,South,9.2,-,N/A,,Overcast,170,2012-11-10 01:15:00
6:35 PM,58.5,34.3,40,29.64,10.0,South,12.7,24.2,N/A,,Overcast,180,2012-11-10 01:35:00
6:55 PM,57.7,35.2,43,29.64,10.0,South,10.4,18.4,N/A,,Overcast,180,2012-11-10 01:55:00
7:15 PM,56.8,34.9,44,29.65,10.0,South,13.8,24.2,N/A,,Overcast,170,2012-11-10 02:15:00
7:35 PM,53.2,36.1,52,29.65,10.0,SE,8.1,-,N/A,,Overcast,130,2012-11-10 02:35:00
7:55 PM,53.2,36.1,52,29.64,10.0,ESE,8.1,-,N/A,,Overcast,120,2012-11-10 02:55:00
8:15 PM,53.6,36.1,52,29.65,10.0,SW,9.2,-,N/A,,Overcast,230,2012-11-10 03:15:00
8:35 PM,57.2,30.0,36,29.65,10.0,SSW,17.3,21.9,N/A,,Overcast,210,2012-11-10 03:35:00
8:55 PM,57.6,28.2,33,29.65,10.0,SSW,19.6,27.6,N/A,,Mostly Cloudy,210,2012-11-10 03:55:00
9:15 PM,57.2,27.5,32,29.66,10.0,South,18.4,32.2,N/A,,Scattered Clouds,190,2012-11-10 04:15:00
9:35 PM,55.9,28.4,35,29.65,10.0,SSW,16.1,19.6,N/A,,Clear,200,2012-11-10 04:35:00
9:55 PM,55.8,29.7,37,29.66,10.0,SSW,21.9,32.2,N/A,,Scattered Clouds,210,2012-11-10 04:55:00
10:15 PM,54.1,32.0,43,29.64,10.0,SSW,16.1,28.8,N/A,,Scattered Clouds,200,2012-11-10 05:15:00
10:35 PM,55.2,31.6,41,29.64,10.0,SW,32.2,47.2,N/A,,Scattered Clouds,220,2012-11-10 05:35:00
10:55 PM,52.7,35.1,51,29.64,10.0,SW,27.6,35.7,N/A,,Scattered Clouds,230,2012-11-10 05:55:00
11:15 PM,51.3,36.9,58,29.64,10.0,SW,19.6,32.2,N/A,,Mostly Cloudy,230,2012-11-10 06:15:00
11:35 PM,50.4,37.6,62,29.63,10.0,WSW,12.7,24.2,N/A,,Overcast,240,2012-11-10 06:35:00
11:55 PM,50.2,37.6,62,29.61,10.0,SW,10.4,16.1,N/A,,Overcast,230,2012-11-10 06:55:00